Latest Weather Observations for Condobolin Airport

IDN60801

Issued at 8:32 pm EST Friday 3 July 2015 (issued every 30 minutes, with the page automatically refreshed every 10 minutes)

About weather observations | Map of weather stations | Latest weather observations for NSW | Other Formats
Station Details ID: 050137 Name: CONDOBOLIN AIRPORT AWS Lat: -33.07 Lon: 147.21 Height: 192.6 m
Data from the previous 72 hours. | See also: Recent months at Condobolin Airport
Date/Time
EST
Temp
°C
App
Temp
°C
Dew
Point
Rel
Hum
%
Delta-T
°C
Wind Press
QNH
hPa
Press
MSL
hPa
Rain
since 9 am
mm
Dir
 
Spd
km/h
Gust
km/h
Spd
kts
Gust
kts
03/08:30pm 2.5 0.6 0.6 87 0.7 CALM 0 0 0 0 1026.8 1027.1 0.0
03/08:00pm 2.5 0.5 -0.1 83 1.0 CALM 0 0 0 0 1026.8 1027.1 0.0
03/07:30pm 3.0 1.0 -0.3 79 1.2 CALM 0 0 0 0 1026.5 1026.8 0.0
03/07:00pm 4.5 2.6 0.6 76 1.5 CALM 0 0 0 0 1026.6 1026.9 0.0
03/06:30pm 5.1 3.2 0.5 72 1.8 CALM 0 0 0 0 1026.7 1027.0 0.0
03/06:00pm 6.1 2.8 -0.2 64 2.4 SW 7 7 4 4 1026.6 1026.9 0.0
03/05:30pm 7.5 3.8 -0.2 58 3.0 WSW 9 11 5 6 1026.5 1026.8 0.0
03/05:00pm 9.4 5.2 -0.8 49 4.0 WSW 11 13 6 7 1026.2 1026.5 0.0
03/04:30pm 11.1 7.0 -0.4 45 4.7 SW 11 15 6 8 1026.0 1026.3 0.0
03/04:00pm 11.7 7.6 -0.4 43 4.9 SW 11 15 6 8 1026.0 1026.3 0.0
03/03:30pm 11.9 8.2 -2.7 36 5.7 S 7 11 4 6 1025.8 1026.1 0.0
03/03:00pm 12.2 8.7 -2.8 35 5.8 WSW 6 13 3 7 1025.7 1026.0 0.0
03/02:30pm 12.0 8.5 -1.5 39 5.4 SW 7 13 4 7 1025.7 1026.0 0.0
03/02:00pm 11.6 8.2 -0.9 42 5.0 SSW 7 11 4 6 1025.9 1026.2 0.0
03/01:30pm 11.7 8.6 -0.1 44 4.8 WSW 6 9 3 5 1026.1 1026.4 0.0
03/01:00pm 11.3 8.1 1.0 49 4.3 SSE 7 11 4 6 1026.6 1026.9 0.0
03/12:30pm 10.8 7.8 2.1 55 3.7 SE 7 11 4 6 1027.1 1027.4 0.0
03/12:00pm 10.0 8.1 2.8 61 3.1 ESE 2 9 1 5 1027.6 1027.9 0.0
03/11:30am 9.4 6.6 2.9 64 2.8 E 7 11 4 6 1028.2 1028.6 0.0
03/11:00am 8.3 5.4 2.8 68 2.3 ENE 7 11 4 6 1028.5 1028.9 0.0
03/10:30am 6.5 3.2 2.4 75 1.7 ESE 9 13 5 7 1029.0 1029.4 0.0
03/10:00am 5.4 1.7 2.6 82 1.1 ESE 11 15 6 8 1028.9 1029.3 0.0
03/09:30am 4.3 1.0 2.2 86 0.8 E 9 11 5 6 1028.6 1029.0 0.0
03/09:00am 3.5 1.1 2.0 90 0.6 SE 4 9 2 5 1028.6 1029.0 0.0
03/08:30am 2.1 0.4 2.0 99 0.0 CALM 0 0 0 0 1028.5 1028.9 0.0
03/08:00am -0.7 -2.8 -1.1 97 0.1 CALM 0 6 0 3 1028.3 1028.7 0.0
03/07:30am -1.3 -4.9 -2.0 95 0.2 NW 7 9 4 5 1028.3 1028.7 0.0
03/07:00am -1.1 -4.5 -1.8 95 0.2 WNW 6 9 3 5 1028.1 1028.5 0.0
03/06:30am -1.2 -4.6 -2.2 93 0.3 W 6 7 3 4 1027.7 1028.0 0.0
03/06:00am 0.0 -3.4 -0.7 95 0.3 W 7 9 4 5 1027.4 1027.7 0.0
03/05:30am -0.4 -4.6 -1.2 94 0.3 WNW 11 13 6 7 1027.2 1027.5 0.0
03/05:00am -0.4 -4.7 -1.4 93 0.3 WNW 11 11 6 6 1026.9 1027.2 0.0
03/04:30am -0.2 -4.0 -1.0 94 0.3 WNW 9 13 5 7 1026.7 1027.0 0.0
03/04:00am -0.5 -4.0 -1.3 94 0.3 WNW 7 9 4 5 1026.5 1026.8 0.0
03/03:30am -0.6 -4.9 -1.4 94 0.3 WNW 11 15 6 8 1026.7 1027.0 0.0
03/03:00am -0.6 -2.8 -1.7 92 0.4 CALM 0 7 0 4 1026.5 1026.8 0.0
03/02:30am 0.0 -2.5 -1.3 91 0.5 WSW 2 9 1 5 1026.7 1027.0 0.0
03/02:00am 1.2 -0.8 0.0 92 0.4 CALM 0 0 0 0 1026.7 1027.0 0.0
03/01:30am 1.5 -0.8 0.3 92 0.4 WNW 2 6 1 3 1026.8 1027.1 0.0
03/01:00am 1.4 -1.9 -0.1 90 0.5 W 7 9 4 5 1027.0 1027.3 0.0
03/12:30am 1.9 -1.2 0.1 88 0.7 WNW 6 11 3 6 1026.8 1027.1 0.0
03/12:00am 3.4 0.9 1.8 89 0.6 W 4 9 2 5 1027.1 1027.4 0.0
 
Date/Time
EST
Temp
°C
App
Temp
°C
Dew
Point
Rel
Hum
%
Delta-T
°C
Wind Press
QNH
hPa
Press
MSL
hPa
Rain
since 9 am
mm
Dir
 
Spd
km/h
Gust
km/h
Spd
kts
Gust
kts
02/11:30pm 2.4 -1.2 0.6 88 0.7 W 9 13 5 7 1027.1 1027.4 0.0
02/11:00pm 3.7 -0.1 1.9 88 0.7 SW 11 17 6 9 1027.1 1027.4 0.0
02/10:30pm 4.1 1.1 2.3 88 0.7 WSW 7 11 4 6 1027.2 1027.5 0.0
02/10:00pm 4.8 1.2 2.8 87 0.8 SSW 11 13 6 7 1027.1 1027.4 0.0
02/09:30pm 5.6 1.7 3.4 86 0.9 SW 13 17 7 9 1026.9 1027.2 0.0
02/09:00pm 6.0 2.2 3.7 85 1.0 SSW 13 15 7 8 1026.8 1027.1 0.0
02/08:30pm 5.9 3.2 3.7 86 0.9 SSW 7 9 4 5 1026.5 1026.8 0.0
02/08:00pm 6.2 3.1 3.7 84 1.1 SW 9 13 5 7 1026.2 1026.5 0.0
02/07:30pm 7.5 4.6 4.6 82 1.3 SW 9 11 5 6 1025.9 1026.2 0.0
02/07:00pm 7.4 4.0 4.0 79 1.5 WSW 11 13 6 7 1025.4 1025.7 0.0
02/06:30pm 8.3 5.3 4.3 76 1.8 WSW 9 11 5 6 1025.2 1025.5 0.0
02/06:00pm 9.3 5.3 4.7 73 2.1 SW 15 19 8 10 1025.1 1025.4 0.0
02/05:30pm 10.6 6.2 6.4 75 2.0 SW 19 24 10 13 1024.7 1025.1 0.0
02/05:00pm 11.1 6.2 6.8 75 2.0 WSW 22 30 12 16 1024.6 1025.0 0.0
02/04:30pm 11.3 5.7 7.0 75 2.1 WSW 26 35 14 19 1024.0 1024.4 0.0
02/04:00pm 12.1 6.4 6.8 70 2.5 W 26 32 14 17 1023.2 1023.5 0.0
02/03:30pm 12.4 5.9 6.5 67 2.8 WSW 30 41 16 22 1023.5 1023.9 0.0
02/03:00pm 12.5 6.2 5.7 63 3.2 WSW 28 37 15 20 1023.6 1024.0 0.0
02/02:30pm 13.7 7.3 5.3 57 4.0 WSW 28 37 15 20 1023.2 1023.5 0.0
02/02:00pm 13.6 6.8 5.3 57 3.9 WSW 30 43 16 23 1023.2 1023.5 0.0
02/01:30pm 14.1 8.0 4.7 53 4.4 W 26 35 14 19 1023.4 1023.7 0.0
02/01:00pm 13.1 8.0 4.3 55 4.0 W 20 32 11 17 1023.8 1024.2 0.0
02/12:30pm 13.2 8.3 4.9 57 3.9 W 20 28 11 15 1024.3 1024.7 0.0
02/12:00pm 12.1 6.9 3.3 55 3.9 WSW 20 30 11 16 1025.0 1025.3 0.0
02/11:30am 11.9 7.3 5.5 65 3.0 W 19 26 10 14 1025.7 1026.0 0.0
02/11:00am 10.5 6.4 4.6 67 2.7 W 15 22 8 12 1026.1 1026.4 0.0
02/10:30am 9.3 5.0 5.3 76 1.8 W 17 20 9 11 1026.3 1026.6 0.0
02/10:00am 8.1 4.4 4.3 77 1.7 W 13 17 7 9 1026.3 1026.6 0.0
02/09:30am 7.0 3.3 4.7 85 1.0 W 13 15 7 8 1026.3 1026.6 0.0
02/09:00am 5.2 2.2 4.0 92 0.5 WNW 9 13 5 7 1026.2 1026.5 0.0
02/08:30am 3.9 0.8 3.8 99 0.0 WNW 9 11 5 6 1026.0 1026.3 0.0
02/08:00am 2.0 -1.8 1.7 98 0.1 NW 11 13 6 7 1025.9 1026.2 0.0
02/07:30am 1.8 -2.1 1.4 97 0.2 WNW 11 11 6 6 1025.8 1026.1 0.0
02/07:00am 2.1 -1.4 1.5 96 0.2 WNW 9 11 5 6 1025.4 1025.7 0.0
02/06:30am 2.5 -1.2 2.1 97 0.2 WNW 11 11 6 6 1025.0 1025.3 0.0
02/06:00am 3.0 -0.6 2.7 98 0.1 NW 11 13 6 7 1024.8 1025.2 0.0
02/05:30am 2.8 -0.5 2.4 97 0.2 WNW 9 11 5 6 1025.0 1025.3 0.0
02/05:00am 3.5 0.3 3.1 97 0.2 WNW 9 13 5 7 1024.7 1025.1 0.0
02/04:30am 3.1 0.2 2.7 97 0.2 NW 7 9 4 5 1024.6 1025.0 0.0
02/04:00am 3.3 -0.3 2.7 96 0.2 WNW 11 13 6 7 1025.1 1025.4 0.0
02/03:30am 2.7 1.0 1.7 93 0.4 CALM 0 2 0 1 1025.2 1025.5 0.0
02/03:00am 3.4 0.6 2.2 92 0.5 NW 6 7 3 4 1025.2 1025.5 0.0
02/02:30am 4.0 1.2 3.0 93 0.4 NW 7 11 4 6 1025.6 1025.9 0.0
02/02:00am 4.7 1.7 4.0 95 0.3 WNW 9 11 5 6 1025.9 1026.2 0.0
02/01:30am 4.0 1.4 3.3 95 0.3 WNW 6 9 3 5 1026.1 1026.4 0.0
02/01:00am 3.6 2.0 2.7 94 0.4 CALM 0 0 0 0 1026.1 1026.4 0.0
02/12:30am 3.6 2.0 2.6 93 0.4 CALM 0 0 0 0 1026.2 1026.5 0.0
02/12:00am 4.0 2.1 2.8 92 0.5 W 2 7 1 4 1026.3 1026.6 0.0
 
Date/Time
EST
Temp
°C
App
Temp
°C
Dew
Point
Rel
Hum
%
Delta-T
°C
Wind Press
QNH
hPa
Press
MSL
hPa
Rain
since 9 am
mm
Dir
 
Spd
km/h
Gust
km/h
Spd
kts
Gust
kts
01/11:30pm 4.5 1.9 3.3 92 0.5 NW 6 9 3 5 1026.3 1026.6 0.0
01/11:00pm 3.8 1.5 2.9 94 0.4 NW 4 7 2 4 1026.6 1026.9 0.0
01/10:30pm 4.1 1.3 3.1 93 0.4 WNW 7 9 4 5 1026.6 1026.9 0.0
01/10:00pm 3.8 0.9 2.8 93 0.4 WNW 7 9 4 5 1026.5 1026.8 0.0
01/09:30pm 3.5 0.2 2.5 93 0.4 WNW 9 11 5 6 1027.0 1027.3 0.0
01/09:00pm 3.2 -0.6 2.0 92 0.5 WNW 11 11 6 6 1026.9 1027.2 0.0
01/08:30pm 3.1 -0.7 1.8 91 0.5 WNW 11 13 6 7 1026.7 1027.0 0.0
01/08:00pm 3.9 1.5 2.3 89 0.6 WNW 4 7 2 4 1026.6 1026.9 0.0
01/07:30pm 3.8 2.1 2.0 88 0.7 CALM 0 0 0 0 1026.5 1026.8 0.0
01/07:00pm 4.4 2.7 2.1 85 0.9 CALM 0 0 0 0 1026.7 1027.0 0.0
01/06:30pm 5.8 3.1 2.8 81 1.2 SW 6 9 3 5 1026.4 1026.7 0.0
01/06:00pm 6.9 4.2 3.5 79 1.4 SW 7 7 4 4 1026.3 1026.6 0.0
01/05:30pm 8.0 4.9 3.7 74 1.9 SW 9 11 5 6 1026.3 1026.6 0.0
01/05:00pm 9.0 5.1 3.6 69 2.3 SSW 13 15 7 8 1026.4 1026.7 0.0
01/04:30pm 10.4 6.6 3.7 63 3.0 S 13 17 7 9 1026.1 1026.4 0.0
01/04:00pm 11.2 7.7 3.3 58 3.5 SSW 11 15 6 8 1025.8 1026.1 0.0
01/03:30pm 11.5 7.5 3.0 56 3.8 SSW 13 19 7 10 1025.8 1026.1 0.0
01/03:00pm 11.8 8.5 4.3 60 3.4 S 11 15 6 8 1026.0 1026.3 0.0
01/02:30pm 10.8 6.5 3.4 60 3.3 SSW 15 20 8 11 1026.3 1026.6 0.0
01/02:00pm 11.1 6.8 3.4 59 3.4 SSW 15 24 8 13 1026.6 1026.9 0.0
01/01:30pm 11.1 7.6 3.4 59 3.4 SSE 11 17 6 9 1026.7 1027.0 0.0
01/01:00pm 11.0 7.2 3.8 61 3.2 SSW 13 22 7 12 1027.3 1027.6 0.0
01/12:30pm 10.1 7.1 4.0 66 2.7 S 9 15 5 8 1027.7 1028.0 0.0
01/12:00pm 9.4 6.6 5.2 75 1.9 S 9 13 5 7 1028.4 1028.8 0.0
01/11:30am 8.1 5.7 7.0 93 0.5 SSW 9 13 5 7 1029.1 1029.5 0.0
01/11:00am 7.2 4.4 7.1 99 0.0 WSW 11 13 6 7 1029.6 1030.0 0.0
01/10:30am 6.3 3.7 6.2 99 0.0 W 9 13 5 7 1029.8 1030.2 0.0
01/10:00am 4.6 2.1 4.5 99 0.0 WSW 7 9 4 5 1029.7 1030.1 0.0
01/09:30am 3.1 0.3 3.0 99 0.0 WSW 7 9 4 5 1029.5 1029.8 0.0
01/09:00am 2.1 -0.9 2.0 99 0.0 W 7 9 4 5 1029.2 1029.5 1.0
01/08:30am 1.3 -0.9 1.2 99 0.0 E 2 7 1 4 1028.8 1029.1 1.0
01/08:00am 0.4 -1.5 0.3 99 0.0 CALM 0 0 0 0 1028.7 1029.0 0.8
01/07:30am 0.2 -1.8 0.1 99 0.0 CALM 0 0 0 0 1028.6 1028.9 0.8
01/07:00am 0.1 -1.9 0.0 99 0.0 CALM 0 0 0 0 1028.5 1028.8 0.8
01/06:30am 0.1 -1.9 0.0 99 0.0 CALM 0 0 0 0 1028.2 1028.5 0.8
01/06:00am 0.2 -1.8 0.1 99 0.0 CALM 0 0 0 0 1027.9 1028.2 0.8
01/05:30am 0.4 -1.5 0.3 99 0.0 CALM 0 0 0 0 1027.7 1028.0 0.8
01/05:00am 1.0 -0.8 0.9 99 0.0 CALM 0 0 0 0 1027.6 1027.9 0.8
01/04:30am 1.3 -1.6 1.2 99 0.0 WNW 6 9 3 5 1027.7 1028.0 0.8
01/04:00am 1.7 -1.4 1.6 99 0.0 WNW 7 7 4 4 1027.8 1028.1 0.8
01/03:30am 2.2 0.5 2.1 99 0.0 CALM 0 2 0 1 1027.7 1028.0 0.8
01/03:00am 2.0 0.3 1.9 99 0.0 CALM 0 6 0 3 1027.7 1028.0 0.8
01/02:30am 1.7 -1.2 1.6 99 0.0 WSW 6 7 3 4 1027.9 1028.2 0.8
01/02:00am 2.8 -0.1 2.7 99 0.0 W 7 9 4 5 1028.0 1028.3 0.8
01/01:30am 2.6 -0.4 2.2 97 0.2 W 7 9 4 5 1028.2 1028.5 0.8
01/01:00am 3.5 2.0 2.8 95 0.3 CALM 0 0 0 0 1028.1 1028.4 0.8
01/12:30am 3.7 0.9 2.2 90 0.6 SE 6 7 3 4 1028.1 1028.4 0.8
01/12:00am 5.9 3.0 4.9 93 0.4 S 9 11 5 6 1028.4 1028.7 0.8
 
Date/Time
EST
Temp
°C
App
Temp
°C
Dew
Point
Rel
Hum
%
Delta-T
°C
Wind Press
QNH
hPa
Press
MSL
hPa
Rain
since 9 am
mm
Dir
 
Spd
km/h
Gust
km/h
Spd
kts
Gust
kts
30/11:30pm 6.5 3.8 5.5 93 0.4 S 9 11 5 6 1028.5 1028.8 0.8
30/11:00pm 6.9 5.5 5.7 92 0.5 S 2 7 1 4 1028.6 1028.9 0.8
30/10:30pm 7.2 5.0 6.1 93 0.5 S 7 9 4 5 1028.7 1029.0 0.8
30/10:00pm 7.0 6.2 6.6 97 0.2 CALM 0 0 0 0 1028.8 1029.1 0.8
30/09:30pm 6.8 5.9 6.2 96 0.3 CALM 0 0 0 0 1028.9 1029.2 0.8
30/09:00pm 6.5 5.5 5.6 94 0.4 CALM 0 0 0 0 1028.9 1029.2 0.8

Other Formats:

Comma delimited format used in spreadsheet applications
http://www.bom.gov.au/fwo/IDN60801/IDN60801.95708.axf

JavaScript Object Notation format (JSON) in row-major order
http://www.bom.gov.au/fwo/IDN60801/IDN60801.95708.json